Regional Weather Roundup
Issued by NWS

Home | Current Version | Previous Version | Text Only | Print | Product List | Glossary On
Versions: 1 2 3 4 5 6 7 8 9 10 11 12 13 14 15 16 17 18 19 20 21 22 23 24 25 26 27 28 29 30 31 32 33 34 35 36 37 38 39 40 41 42 43 44 45 46 47 48 49 50
000
ASHW40 PHFO 070143
RWRHI

WEATHER ROUNDUP FOR HAWAII
NATIONAL WEATHER SERVICE HONOLULU HI
300 PM HST FRI MAR 06 2015

THIS IS AN AUTOMATED REPORT THAT HAS NOT BEEN QUALITY CONTROLLED.

NOTE..."FAIR" INDICATES FEW OR NO CLOUDS BELOW 12,000 FEET WITH NO
SIGNIFICANT WEATHER AND/OR OBSTRUCTIONS TO VISIBILITY.

* - THESE SITES REPORT LIMITED FIELDS

HIZ001>004-070200-
KAUAI-NIIHAU-

CITY           SKY/WX    TMP DP  RH WIND       PRES   REMARKS
LIHUE APT      PTSUNNY   74  55  51 N24G33    29.95F
PORT ALLEN*      N/A     81 N/A N/A SW12        N/A
POIPU*           N/A     77 N/A N/A N7G21       N/A
PRINCEVILLE*     N/A     70 N/A N/A MISG        N/A
KOKOLE POINT*  NOT AVBL
MOLOAA DAIRY*  NOT AVBL
WAIMEA HTS*    NOT AVBL
PUU OPAE*        N/A     66  50  55 NE12G26     N/A
PUU LUA*       NOT AVBL
MAKAHA RIDGE*  NOT AVBL
$$

HIZ005>011-070200-
OAHU-

CITY           SKY/WX    TMP DP  RH WIND       PRES   REMARKS
HONOLULU       PTSUNNY   75  57  53 N16G24    29.88F
KALAELOA       PTSUNNY   76  56  49 NE12G29   29.89S
KANEOHE MCB    CLOUDY    73  60  63 NE22      29.89F
WHEELER FIELD  FAIR      69  56  65 N14G22    29.90F
BELLOWS*         N/A    N/A N/A N/A N13G23      N/A
KAHUKU*          N/A    N/A N/A N/A NE6G15      N/A
WHEELER*       NOT AVBL
WAIANAE HARBOR NOT AVBL
DILLINGHAM*      N/A     73  59  60 MISG        N/A
KAHUKU TRN*      N/A     68  55  64 NE10G21     N/A
KAWAILOA*        N/A     64  55  72 N12G18      N/A
KII*             N/A     72  57  60 N17         N/A
MAKUA RANGE*     N/A     72  57  60 E16G30      N/A
OAHU FOREST NW   N/A     59  12  15 CALM        N/A
SCHOFIELD BRK*   N/A     68  55  64 MISG        N/A
SCHOFIELD S*   NOT AVBL
WAIANAE VLY*     N/A     70  55  60 NE10G36     N/A
KUAOKALA*        N/A     66  55  68 CALM        N/A
HONOULIUULI*   NOT AVBL
MOKUOLOE IS*     N/A    N/A N/A N/A MISG        N/A
PALEHUA*         N/A     79  55  44 CALM        N/A
WAIAWA PHB*    NOT AVBL
$$

HIZ012>013-070200-
MOLOKAI-

CITY           SKY/WX    TMP DP  RH WIND       PRES   REMARKS
MOLOKAI AIRPT  PTSUNNY   71  60  68 N15G24    29.90F
KALAUPAPA      NOT AVBL
MAKAPULAPAI*     N/A     70  59  68 NE14G22     N/A
MOLOKAI 1*       N/A     61  59  94 NE12G26     N/A
PUU ALII*        N/A     52  52 100 E2G9        N/A
$$

HIZ016-070200-
KAHOOLAWE-

CITY           SKY/WX    TMP DP  RH WIND       PRES   REMARKS
KAHOOLAWE*       N/A     64 N/A N/A N23G32      N/A
HAKIOAWA*        N/A     65  62  90 CALM      30.26F
HONOKANAIA*      N/A     76  63  64 N22G39    29.85F
KANELOA*         N/A     73  63  68 MISG      29.06S
KEALIALALO*    NOT AVBL
LUA MAKIKA*    NOT AVBL
$$

HIZ014>015-070200-
LANAI-

CITY           SKY/WX    TMP DP  RH WIND       PRES   REMARKS
LANAI CITY     FAIR      72  58  61 NE18G37   29.89F
LANAI 1*         N/A     70  63  78 NE25G39     N/A
$$

HIZ017>028-070200-
MAUI-

CITY           SKY/WX    TMP DP  RH WIND       PRES   REMARKS
KAHULUI        RAIN      72  64  78 NE17      29.90F
KAPALUA-W MAUI RAIN      66  63  88 N25       29.90F
HANA AIRPORT   LGT RAIN  66  63  88 NW8       29.93R
HANA*            N/A     68 N/A N/A W6          N/A
HALEAKALA SUMM   N/A     48  39  71 SW3         N/A
MAALAEA BAY*   NOT AVBL
HALEAKALA*     NOT AVBL
KAUPO GAP*       N/A     59  59 100 S6G16       N/A
KULA 1*          N/A     54  52  94 W6G12       N/A
$$

HIZ023>026-070200-
BIG ISLAND OF HAWAII COAST AND LOWER SLOPES-

CITY           SKY/WX    TMP DP  RH WIND       PRES   REMARKS
KAILUA KONA    CLOUDY    80  65  59 N26G36    29.79S
HILO           LGT RAIN  69  66  90 N16       29.87S FOG
HONOKAA*       NOT AVBL
KAWAIHAE MWT*    N/A     84 N/A N/A W6          N/A
KAWAIHAE*        N/A     82 N/A N/A SE3G10      N/A
SOUTH POINT*     N/A     73 N/A N/A E10G17      N/A
UPOLU AIRPORT*   N/A    N/A N/A N/A NE22G30     N/A
KAMUELA*       CLOUDY    64  61  88 N18       29.92S
HAKALAU*         N/A     53  52  95 N8G15       N/A
KALOKO-HONOKO*   N/A     81  63  54 SE6G12    29.77F
PALI 2*          N/A     66  57  72 NE15G25     N/A
KEALAKOMO*       N/A     79  61  53 VRB18G40    N/A
KAUPULEHU*       N/A     79  57  47 NE16G26     N/A
KAPAPALA*        N/A     71  64  79 S6G12       N/A
LOWER KAHUKU*    N/A    N/A N/A N/A S2G9        N/A
PUHE CS*         N/A     82  57  42 SW3G15      N/A
PUHO CS*         N/A     80  66  61 SW5G12      N/A
PTA KEAMUKU*     N/A     63  55  77 NE3G32      N/A
WAIKOLOA*        N/A     75  57  53 E23G35      N/A
$$

HIZ027>028-070200-
BIG ISLAND OF HAWAII INTERIOR AND SUMMMITS-

CITY           SKY/WX    TMP DP  RH WIND       PRES   REMARKS
BRADSHAW FIELD CLOUDY    63  48  58 W6G15     30.09F
MK VISITOR CEN NOT AVBL
MAUNA KEA*       N/A     32 -11  15 NW66        N/A  WCI  12
MAUNA LOA*       N/A     45  36  70 MISG        N/A
MAUNA LOA 1*   NOT AVBL
PTA KIPUKA*      N/A     64  52  63 NW6G12      N/A
PTA RANGE 17*    N/A     64  48  55 W9G15       N/A
PTA WEST*        N/A     70  50  49 NW6G15      N/A
NENE CABIN*      N/A     54  48  82 S3G9        N/A
AHUMOA*          N/A     56  51  85 N12G18      N/A
PTA PORTABLE*  NOT AVBL
PUU MALI*      NOT AVBL
$$

HIC003-070200-
NORTHWEST ISLANDS-

CITY           SKY/WX    TMP DP  RH WIND       PRES   REMARKS
MIDWAY ISLAND  PTSUNNY   64  55  72 E24G33    30.32F
MIDWAY NOS*    NOT AVBL
FRENCH FRIGATE NOT AVBL
$$

PHZ110>124-180-070200-
BUOY REPORTS

STATION/POSITION TIME  TEMP    WIND        PRES    WAVE   SWELL
                       AIR SEA DIR/SP/G            HT/PER HT/DIR
                 (UTC) (F)     (DEG/KT/KT) (MB)    (FT/S) (FT/D)
BUOY 51001       NOT AVBL
BUOY 51101       0100   66 73   30/ 21/ 29 1017.5F  11/ 9   5/340
BUOY 51100       0100   68 74   10/ 19/ 25 1011.5F
BUOY 51003       0100   73 78   30/ 21/ 25 1011.1F  10/ 8   5
BUOY 51004       0039   75 78   20/ 16/ 19 1008.2    8/ 9   7/ 60
BARBERS PT BUOY  NOT AVBL
WAIMEA BAY BUOY  0100      76                N/A     9/ 9   3/340
KAILUA BAY BUOY  0100      75                N/A     8/10   3/360
LANAI BUOY       0100      76                N/A     3/13   2/250
BARBERS PT 2     0100      77                N/A     4/ 9   2/240
PAUWELA MAUI     0100      74                N/A     9/ 9   3/ 10
HILO             0100      77                N/A    10/10   3/350
KANEOHE BAY BUOY 0100      75                N/A     8/ 9   3/360
HANALEI KAUAI    NOT AVBL
KAHULUI HARBOR   0100   69 74   10/ 16/ 19 1012.3F
HONOLULU HARBOR  0100   74 76   50/  4/ 16 1011.4F
KILO NALU        NOT AVBL
HILO HARBOR      0100   68 77  350/ 22/ 25 1010.9S
MOKUOLOE         0100   71 75   20/ 15/ 19 1012.8F
NAWILIWILI       0100   71 76   10/ 14/ 24 1013.5S
WHOTS BUOY       NOT AVBL
BUOY 51028       NOT AVBL
$$

......................KEY........................................
  SKY/WX - SKY CONDITIONS/PRESENT WEATHER
  TMP    - TEMPERATURE IN FAHRENHEIT
  DWPT   - DEWPOINT IN FAHRENHEIT
  RH     - RELATIVE HUMIDITY IN PERCENT
  WIND   - DIRECTION AND SPEED /MPH FOR ISLANDS...KTS FOR BUOYS/
  PRES   - MEAN SEA LEVEL PRESSURE IN INCHES OF HG
  VSB    - VISIBILITY IN MILES
  HX     - HEAT INDEX
  WCI    - WIND CHILL INDEX
  VRB    - VARIABLE WIND DIRECTION
  N/A    - NOT AVAILABLE



USA.gov is the U.S. government's official web portal to all federal, state and local government web resources and services.